User: anonymous   Login
Location: Callao
(39.8979°N, 113.7141°W)
Time: 18:54:51
(UTC+00:00)
Language:

ISS - Orbit

View from above orbital plane
View from above orbital plane
View from above satellite
View from above satellite

Ground track
Ground track

The orbit data is extracted from the following two-line orbital elements,

1 25544U 98067A   21111.72253054  .00002075  00000-0  45928-4 0  9990
2 25544  51.6445 262.0086 0002520 259.7638 237.5543 15.48915938279842
Epoch (UTC): 21 April 2021 17:20:26
Eccentricity: 0.0002520
inclination: 51.6445°
perigee height: 418 km
apogee height: 421 km
right ascension of ascending node: 262.0086°
argument of perigee: 259.7638°
revolutions per day: 15.48915938
mean anomaly at epoch: 237.5543°
orbit number at epoch: 27984

The dashed part of the orbit path shows where the satellite is in the earth's shadow,  

DLR